This is the latest recevied weather packets stored in our database for station/object KB1JL-13. If no packets are shown the sender has not sent any weather packets the latest 10 day(s).
| Time | Temp. | Humidity | Pressure | Rain* | Wind** | Luminosity | Snow |
|---|---|---|---|---|---|---|---|
| 1788554274 | 27.78° C | 59% | 1021.9 hPa | 0 mm | - | 346 W/m² | - |
| 1788553971 | 27.22° C | 60% | 1021.9 hPa | 0 mm | - | 356 W/m² | - |
| 1788553666 | 27.22° C | 58% | 1022.2 hPa | 0 mm | - | 367 W/m² | - |
| 1788553363 | 27.22° C | 60% | 1021.9 hPa | 0 mm | - | 382 W/m² | - |
| 1788553063 | 27.78° C | 58% | 1021.9 hPa | 0 mm | - | 388 W/m² | - |
| 1788552752 | 27.78° C | 59% | 1021.9 hPa | 0 mm | - | 409 W/m² | - |
| 1788552447 | 27.78° C | 58% | 1021.9 hPa | 0 mm | - | 424 W/m² | - |
| 1788552141 | 27.22° C | 61% | 1021.9 hPa | 0 mm | - | 438 W/m² | - |
| 1788551840 | 26.67° C | 61% | 1021.9 hPa | 0 mm | - | 302 W/m² | - |
| 1788551539 | 27.78° C | 59% | 1022.2 hPa | 0 mm | - | 85 W/m² | - |
| 1788551234 | 27.78° C | 57% | 1022.2 hPa | 0 mm | - | 315 W/m² | - |
| 1788550933 | 27.78° C | 58% | 1022.2 hPa | 0 mm | - | 522 W/m² | - |
| 1788550629 | 28.33° C | 58% | 1021.9 hPa | 0 mm | - | 502 W/m² | - |
| 1788550324 | 28.33° C | 58% | 1021.9 hPa | 0 mm | - | 527 W/m² | - |
| 1788550019 | 28.33° C | 57% | 1022.2 hPa | 0 mm | - | 593 W/m² | - |
| 1788549715 | 28.33° C | 58% | 1021.9 hPa | 0 mm | - | 591 W/m² | - |
| 1788549412 | 28.33° C | 58% | 1022.2 hPa | 0 mm | - | 544 W/m² | - |
| 1788549107 | 27.78° C | 61% | 1022.2 hPa | 0 mm | - | 563 W/m² | - |
| 1788548803 | 27.78° C | 59% | 1022.2 hPa | 0 mm | - | 516 W/m² | - |
| 1788548499 | 27.78° C | 64% | 1022.2 hPa | 0 mm | - | 517 W/m² | - |
| 1788548196 | 27.78° C | 59% | 1022.6 hPa | 0 mm | - | 537 W/m² | - |
| 1788547907 | 27.22° C | 62% | 1022.2 hPa | 0 mm | - | 576 W/m² | - |
| 1788547589 | 27.78° C | 63% | 1022.2 hPa | 0 mm | - | 598 W/m² | - |
| 1788547285 | 27.78° C | 60% | 1022.6 hPa | 0 mm | - | 117 W/m² | - |
| 1788546980 | 27.78° C | 62% | 1022.2 hPa | 0 mm | - | 587 W/m² | - |
* Rain latest hour (hover to see other rain measurements)
** Current wind speed in m/s (hover to see current wind gust speed)